Flag for Jordan Weather past 2 weeks in Amman, Jordan

Now
81 °F

Clear.


Feels Like: 80 °F
Forecast: 67 / 88 °F
Wind: 6 mph from North

Location: Amman Airport

Current Time: Aug 29, 2014 at 11:26:27 AM

Latest Report: Aug 29, 2014 at 11:00 AM


Visibility: 4 mi

Pressure: 29.92 "Hg

Humidity: 37%

Dew point: 52 °F

Location of AmmanLocation

Historic Weather in Amman — Graph

°F

Amman temperature yesterday

Maximum temperature yesterday: 88 °F (at 4:00 PM)
Minimum temperature yesterday: 66 °F (at 7:00 PM)
Average temperature yesterday: 78 °F

Past Weeks' High & Low Weather Summary

 TemperatureHumidityPressure
High97 °F (Aug 14, 3:00 PM)88% (Aug 23, 6:00 AM)30.07 "Hg (Aug 23, 6:00 AM)
Low66 °F (Aug 22, 5:00 AM)10% (Aug 21, 1:00 PM)29.74 "Hg (Aug 17, 4:00 PM)
Average81 °F38%29.88 "Hg
* Reported Aug 14 10:00 AM — Aug 29 10:00 AM, Amman, Weather by CustomWeather, © 2014

Note: Actual official high and low records may vary slightly from our data, if they occured in-between our weather recording intervals... More about our weather records

Advertising

Amman weather history for previous 24 hours

 ConditionsComfort  
Time TempWeatherWind HumidityBarometerVisibility
10:00 AM
Aug 29
75 °FClear.12 mph50%29.89 "Hg4 mi
9:00 AM72 °FClear.9 mph61%29.89 "Hg4 mi
8:00 AM70 °FHaze.9 mph64%29.89 "Hg2 mi
7:00 AM66 °FHaze.5 mph83%29.86 "Hg2 mi
6:00 AM68 °FHaze.7 mph78%29.86 "Hg3 mi
5:00 AM68 °FHaze.6 mph78%29.86 "Hg3 mi
4:00 AM70 °FHaze.No wind69%29.86 "Hg3 mi
3:00 AM72 °FHaze.7 mph73%29.86 "Hg3 mi
2:00 AM72 °FHaze.7 mph69%29.86 "Hg3 mi
1:00 AM73 °FHaze.5 mph69%29.89 "Hg3 mi
12:00 AM73 °FHaze.7 mph69%29.89 "Hg3 mi
10:00 PM
Aug 28
75 °FHaze.6 mph65%29.89 "Hg3 mi
9:00 PM77 °FHaze.12 mph61%29.86 "Hg3 mi
8:00 PM81 °FHaze.12 mph51%29.83 "Hg3 mi
7:00 PM66 °FHaze.12 mph73%29.83 "Hg3 mi
6:00 PM86 °FHaze.12 mph29%29.83 "Hg3 mi
5:00 PM86 °FHaze.12 mph29%29.83 "Hg3 mi
4:00 PM88 °FHaze.16 mph27%29.86 "Hg3 mi
3:00 PM86 °FClear.12 mph25%29.86 "Hg4 mi
2:00 PM86 °FClear.12 mph27%29.86 "Hg4 mi
1:00 PM84 °FClear.12 mph29%29.86 "Hg4 mi
12:00 PM84 °FHaze.12 mph27%29.86 "Hg3 mi
11:00 AM81 °FHaze.9 mph34%29.86 "Hg3 mi
Weather by CustomWeather, © 2014

See weather overviewHow to use our weather pages